Hauptseite
METAR-TAF:

METAR-TAF

Flughäfen :

Altenstadt, Deutschland

Heeresflugplatz Altenstadt

Breite: 47-50N, Länge: 010-52E, Höhe: 739 m

Beobachtung

Neuester Wetterbericht von vor 22 Minuten, um 03:20 UTC
Wind 1 kt aus West/Nordwest
Temperatur 1°C
Luftfeuchtigkeit 100%
Luftdruck 988 hPa

METAR: ETHA 110320Z AUTO 29001KT //// // ////// 01/01 Q0988 ///

Zeit: 04:42 (03:42 UTC)


TAF: fehlend

Wetterbeobachtungen und Prognosen von mehr als 4000 Flughäfen (METAR und TAF Bericht).

Die verfügbaren Stationen werden durch gelbe und rote Markierungen auf der Karte dargestellt.

Führen Sie die Maus auf sie, um den Namen der Station zu sehen.

Darauf klicken, um die Beobachtung von Wetterbeobachtungen und Prognosen zu sehen.

Um die Karte zu ändern : klicken Sie auf den grünen Tasten mit einem schwarzen Kreuz Zum Vergrößern, auf den grünen Button mit einem Gedankenstrich zu verkleinern, oder auf die grünen Pfeile für benachbarte Karten.


METAR-TAF: